Location: The D'Auria's Ocala Star Observatory
(29.0276°N, 82.1742°W)
Time: 06:08:47
(UTC-04:00)

Okean 3 Rocket - Visible Passes

Search period start: 21 August 2014 00:00
Search period end: 31 August 2014 00:00
Orbit: 617 x 646 km, 82.5° (Epoch: 20 August)

Date Brightness Start Highest point End Pass type
(mag) Time Alt. Az. Time Alt. Az. Time Alt. Az.
21 Aug 4.5 21:32:02 10° NNE 21:35:39 32° ENE 21:35:39 32° ENE visible
21 Aug 6.4 23:11:26 10° NW 23:13:05 14° WNW 23:13:05 14° WNW visible
22 Aug 3.6 21:52:59 10° N 21:57:17 74° NE 21:57:17 74° NE visible
23 Aug 5.6 20:39:12 10° ENE 20:40:32 11° ENE 20:41:31 11° E visible
23 Aug 4.6 22:14:30 10° NNW 22:18:49 44° W 22:18:57 44° W visible
24 Aug 4.7 20:58:22 10° NNE 21:02:06 25° E 21:03:15 22° ESE visible
24 Aug 5.9 22:36:43 10° NW 22:39:59 20° W 22:40:42 19° W visible
25 Aug 3.7 21:19:04 10° N 21:23:32 56° E 21:25:02 37° SE visible
26 Aug 4.0 21:40:22 10° NNW 21:44:51 62° W 21:46:55 30° SSW visible
27 Aug 5.1 20:24:52 10° NNE 20:28:01 18° ENE 20:31:08 10° ESE visible
27 Aug 5.6 22:02:16 10° NNW 22:06:04 27° W 22:08:53 15° SW visible
28 Aug 4.1 20:45:14 10° N 20:49:30 40° E 20:53:29 11° SSE visible
28 Aug 6.6 22:25:29 10° WNW 22:27:09 12° W 22:28:49 10° WSW visible
29 Aug 3.6 21:06:19 10° N 21:10:52 86° W 21:15:22 10° S visible
30 Aug 5.1 21:27:58 10° NNW 21:32:07 36° W 21:36:14 10° SSW visible
